Hourly Data Report for October 05, 2017

All times are specified in Local Standard Time (LST). Add 1 hour to adjust for Daylight Saving Time where and when it is observed.

WHALE COVE A
NUNAVUT

62°14'24.000" N
92°35'53.000" W
12.20 m
2303990
YXN

Related Data

No related data is available for this station

Download Data

Hourly Data (October 2017)
Hourly Data Report for October 5, 2017
Temp Definition
°C
Dew Point Temp Definition
°C
Rel Hum Definition
%
Wind Dir Definition
10's deg

Wind Spd Definition
km/h
Visibility Definition
km
Stn Press Definition
kPa
Hmdx Definition


Wind Chill Definition


Weather Definition


TIME
00:00 Legend Double Dagger -3.0 -6.3 78 30 48 LegendMM 99.83   -12 LegendNANA
01:00 Legend Double Dagger -3.5 -6.4 80 30 59 LegendMM 99.81   -14 LegendNANA
02:00 Legend Double Dagger -3.6 -6.4 81 30 53 LegendMM 99.76   -13 LegendNANA
03:00 Legend Double Dagger -3.6 -7.1 77 30 54 LegendMM 99.73   -13 LegendNANA
04:00 Legend Double Dagger -3.6 -7.0 78 30 50 LegendMM 99.70   -13 LegendNANA
05:00 Legend Double Dagger -4.3 -7.3 80 30 48 LegendMM 99.68   -14 LegendNANA
06:00 Legend Double Dagger -4.4 -7.7 78 30 55 LegendMM 99.65   -15 LegendNANA
07:00 Legend Double Dagger -4.4 -7.2 81 30 51 LegendMM 99.59   -14 LegendNANA
08:00 Legend Double Dagger -3.6 -7.1 77 31 47 LegendMM 99.56   -13 LegendNANA
09:00 Legend Double Dagger -3.4 -6.7 78 31 51 LegendMM 99.56   -13 LegendNANA
10:00 Legend Double Dagger -3.0 -6.5 77 30 50 LegendMM 99.52   -12 LegendNANA
11:00 Legend Double Dagger -2.6 -6.5 74 31 53 LegendMM 99.51   -12 LegendNANA
12:00 Legend Double Dagger -2.3 -6.3 74 31 50 LegendMM 99.52   -11 LegendNANA
13:00 Legend Double Dagger -2.0 -5.7 76 32 54 LegendMM 99.53   -11 LegendNANA
14:00 Legend Double Dagger -1.9 -5.5 76 31 54 LegendMM 99.56   -11 LegendNANA
15:00 Legend Double Dagger -1.6 -5.2 77 31 51 LegendMM 99.58   -10 LegendNANA
16:00 Legend Double Dagger -1.7 -5.0 79 31 50 LegendMM 99.62   -10 LegendNANA
17:00 Legend Double Dagger -1.8 -4.6 81 31 46 LegendMM 99.63   -10 LegendNANA
18:00 Legend Double Dagger -2.0 -5.0 80 32 49 LegendMM 99.64   -11 LegendNANA
19:00 Legend Double Dagger -2.0 -4.4 84 31 39 LegendMM 99.67   -10 LegendNANA
20:00 Legend Double Dagger -1.9 -4.2 85 31 39 LegendMM 99.64   -10 LegendNANA
21:00 Legend Double Dagger -2.0 -4.1 86 31 41 LegendMM 99.63   -10 LegendNANA
22:00 Legend Double Dagger -1.9 -4.2 85 32 38 LegendMM 99.62   -10 LegendNANA
23:00 Legend Double Dagger -2.4 -4.7 84 32 30 LegendMM 99.63   -10 LegendNANA

Notes on Data Quality.

Legend

  • E = Estimated
  • M = Missing
  • NA = Not Available
  • ‡ = Partner data that is not subject to review by the National Climate Archives
Date modified: